Погода в Самутсонгкхраме

Таиланд     13°24′32″N   99°59′18″E
темп.,
°C
ветер,
м/с
пор.,
м/с
влажн.,
%
обл.,
%
осадки,
мм/ч
давл.,
гПа
погр.,
м
22 января, пт
пт2201:00+21з235178 0.0 101036
04:00+19сз12520 0.0 100932
07:00+19сз22550 0.0 101135
10:00+30зсз113270 0.0 1012466
13:00+35юв112558 0.0 10101697
16:00+31юв443473 0.0 1007711
19:00+24ююв345866 0.0 100884
22:00+23ююз356314 0.0 1010118
23 января, сб
сб2301:00+22ююз236220 0.0 101048
04:00+21сз11640 0.0 100932
07:00+20ссз126617 0.0 101131
10:00+31юз013735 0.0 1012581
13:00+32юв443527 0.0 10091284
16:00+31юв444125 0.0 1007643
19:00+25ююв376618 0.0 1008179
22:00+24ю37753 0.0 1011213
24 января, вс
вс2401:00+23ююв34751 0.0 1011117
04:00+22ю22800 0.0 101061
07:00+21зсз11800 0.0 101141
10:00+31сз11440 0.0 1013634
13:00+34юв22380 0.0 10101595
16:00+31юв45481 0.0 1007577
19:00+26ююв47740 0.0 1009184
22:00+24ю378013 0.0 1011220
25 января, пн
пн2501:00+24ю23816 0.0 101175
04:00+23ююв118442 0.0 101037
07:00+22зсз018621 0.0 101133
10:00+32зсз11460 0.0 1013672
13:00+36юв22350 0.0 10101779
16:00+32юв44422 0.0 1007775
19:00+26ююв35671 0.0 1008109
22:00+25ю36790 0.0 1010164
26 января, вт
вт2601:00+24ююв12775 0.0 100941
04:00+23ссз017786 0.0 100929
07:00+23зсз127643 0.0 101028
10:00+32сз22440 0.0 1011549
13:00+36в23320 0.0 10082036
16:00+32юв55446 0.0 1006703
19:00+27ю36643 0.0 1007159
22:00+26ю36710 0.0 1010147